Ellensburg, WA
on Monday, December 17, 2012

Monday
Previous Day Next Day
Daily Summary
 ActualAverage (KYKM)Record (KYKM)
Temperature
Mean Temperature °F 28°F  
Max Temperature 39°F 35°F 56°F (1990)
Min Temperature 19°F 21°F -17°F (1964)
Degree Days
Heating Degree Days 36 37  
Month to date heating degree days 606  
Since 1 July heating degree days 2139  
Cooling Degree Days 0 0  
Month to date cooling degree days 0  
Year to date cooling degree days 472  
Moisture
Dew Point 27°F   
Average Humidity 76    
Maximum Humidity 85    
Minimum Humidity 65    
Precipitation
Precipitation 0.07 in 0.06 in 0.20 in (1977)
Month to date precipitation 0.83  
Year to date precipitation 7.55  
Snow
Snow 0.00 in 0.30 in 2.00 in (1984)
Month to date snowfall 5.0  
Year to date snowfall 17.2  
Since 1 July snowfall 8.6  
Snow Depth in   
Wind
Wind Speed 9 mph   
Max Wind Speed 24 mph   
Max Gust Speed 32 mph   
Visibility 9 miles   
Events Rain , Snow   

Key: T is trace of precipitation, MM is missing value
Source: NWS Daily Summary
Time(PST)TemperatureDew PointHumidity Pressure Visibility Wind DirectionWind SpeedGust SpeedPrecipitationEvents Conditions
12:53 AM 35.1°F 30.9°F 85% 29.12 in 5.0 miles East 10.4 mph - 0.01 in Snow Light Snow
12:58 AM 35.6°F 30.2°F 81% 29.08 in 2.5 miles East 11.5 mph - 0.01 in Snow Light Snow
1:17 AM 35.6°F 30.2°F 81% 29.06 in 3.0 miles ENE 9.2 mph - 0.03 in Snow Light Snow
1:50 AM 35.6°F 30.2°F 81% 29.06 in 10.0 miles ENE 8.1 mph - 0.03 in Rain Light Rain
1:53 AM 36.0°F 30.9°F 82% 29.10 in 10.0 miles ENE 8.1 mph - 0.03 in Rain Light Rain
2:53 AM 37.9°F 32.0°F 79% 29.09 in 10.0 miles Calm Calm - 0.01 in Rain Light Rain
3:53 AM 37.0°F 32.0°F 82% 29.09 in 10.0 miles SSE 5.8 mph - 0.02 in Rain Light Rain
4:53 AM 37.9°F 30.9°F 76% 29.12 in 10.0 miles SSE 5.8 mph - 0.00 in Rain Light Rain
5:53 AM 36.0°F 30.9°F 82% 29.19 in 10.0 miles Calm Calm - 0.00 in Rain Light Rain
6:53 AM 36.0°F 30.9°F 82% 29.26 in 10.0 miles NW 9.2 mph - 0.00 in   Mostly Cloudy
7:53 AM 37.9°F 28.9°F 70% 29.31 in 10.0 miles WNW 19.6 mph - 0.00 in   Partly Cloudy
8:53 AM 37.9°F 28.9°F 70% 29.32 in 10.0 miles West 19.6 mph 32.2 mph N/A   Partly Cloudy
9:53 AM 39.9°F 28.9°F 65% 29.39 in 10.0 miles West 16.1 mph - N/A   Partly Cloudy
10:53 AM 39.0°F 30.0°F 70% 29.44 in 10.0 miles WNW 9.2 mph - N/A   Clear
11:53 AM 37.9°F 28.9°F 70% 29.50 in 10.0 miles NW 15.0 mph - N/A   Scattered Clouds
12:53 PM 37.9°F 27.0°F 65% 29.56 in 10.0 miles NW 24.2 mph - N/A   Overcast
1:53 PM 36.0°F 27.0°F 70% 29.60 in 10.0 miles NW 20.7 mph - N/A   Overcast
4:53 PM 30.9°F 21.0°F 67% 29.71 in 10.0 miles NW 9.2 mph - N/A   Partly Cloudy
5:53 PM 30.9°F 24.1°F 76% 29.75 in 10.0 miles NNW 12.7 mph - N/A   Overcast
6:53 PM 30.9°F 25.0°F 79% 29.77 in 10.0 miles NW 8.1 mph - N/A   Overcast
7:53 PM 25.0°F 19.0°F 78% 29.81 in 10.0 miles Calm Calm - N/A   Clear
8:53 PM 26.1°F 19.9°F 78% 29.83 in 10.0 miles NNE 3.5 mph - N/A   Overcast
9:53 PM 25.0°F 19.0°F 78% 29.84 in 10.0 miles Calm Calm - N/A   Clear
10:53 PM 19.0°F 14.0°F 81% 29.87 in 10.0 miles Calm Calm - N/A   Clear
11:53 PM 19.9°F 15.1°F 81% 29.88 in 10.0 miles South 5.8 mph - N/A   Clear
Moon Phase
Dec. 17 Dec. 20 Dec. 28 Jan. 04 Jan. 11
Sunrise:07:43 AM (PST) Moon Rise:10:37 AM (PST)
Sunset:04:14 PM (PST) Moon Set:10:00 PM (PST)

Copyright © 2014 The Weather Underground, Inc.